GLO1335 SBDN-SBSP

Flight info

Callsign GLO1335
Flight time 0h 48m
Altitude 31000
Route TOPUX DCT ESILO UZ65 EDMOX DCT UTLOT
Aircraft B737/M-SDFGIKLORWXY/LB1

Departure

Time 2026-04-17 20:58
Airport Presidente Prudente Airport (SBDN)

Arrival

Time 2026-04-17 21:46
Airport Congonhas–Deputado Freitas Nobre Airport (SBSP)
Time Latitude Longitude Altitude Speed Heading
2026-04-17 20:39 -22.17790 -51.41718 1488 ft 0 kts 188°
2026-04-17 20:52 -22.17771 -51.41716 1478 ft 4 kts 171°
2026-04-17 20:52 -22.17750 -51.41728 1473 ft 4 kts 117°
2026-04-17 20:52 -22.17745 -51.41743 1481 ft 1 kts 98°
2026-04-17 20:53 -22.17745 -51.41745 1488 ft 0 kts 98°
2026-04-17 20:56 -22.17745 -51.41742 1478 ft 3 kts 98°
2026-04-17 20:56 -22.17752 -51.41693 1475 ft 9 kts 98°
2026-04-17 20:56 -22.17762 -51.41620 1488 ft 10 kts 98°
2026-04-17 20:56 -22.17768 -51.41548 1488 ft 10 kts 82°
2026-04-17 20:57 -22.17736 -51.41487 1484 ft 9 kts 41°
2026-04-17 20:57 -22.17675 -51.41479 1479 ft 9 kts 347°
2026-04-17 20:57 -22.17638 -51.41482 1486 ft 1 kts 316°
2026-04-17 20:57 -22.17634 -51.41522 1479 ft 25 kts 278°
2026-04-17 20:58 -22.17564 -51.42027 1475 ft 109 kts 278°
2026-04-17 20:58 -22.17417 -51.43084 1514 ft 174 kts 279°
2026-04-17 20:58 -22.17232 -51.44361 2457 ft 169 kts 280°
2026-04-17 20:58 -22.17052 -51.45658 3294 ft 184 kts 279°
2026-04-17 20:59 -22.16862 -51.47115 3926 ft 206 kts 277°
2026-04-17 20:59 -22.16664 -51.48728 4506 ft 226 kts 277°
2026-04-17 20:59 -22.16645 -51.50458 5184 ft 244 kts 256°
2026-04-17 20:59 -22.17552 -51.52129 5597 ft 278 kts 223°
2026-04-17 21:00 -22.19301 -51.53024 6674 ft 282 kts 191°
2026-04-17 21:00 -22.21230 -51.53303 7932 ft 276 kts 188°
2026-04-17 21:00 -22.23099 -51.53525 9129 ft 274 kts 184°
2026-04-17 21:00 -22.25032 -51.53159 9805 ft 297 kts 154°
2026-04-17 21:01 -22.26560 -51.51621 10499 ft 313 kts 121°
2026-04-17 21:01 -22.27289 -51.49338 11004 ft 335 kts 98°
2026-04-17 21:01 -22.27382 -51.46764 11571 ft 350 kts 90°
2026-04-17 21:01 -22.27409 -51.44114 12369 ft 356 kts 91°
2026-04-17 21:02 -22.27430 -51.41424 13233 ft 361 kts 91°
2026-04-17 21:02 -22.27442 -51.38731 13990 ft 366 kts 91°
2026-04-17 21:02 -22.27451 -51.35961 14722 ft 372 kts 91°
2026-04-17 21:02 -22.27458 -51.33151 15488 ft 376 kts 91°
2026-04-17 21:03 -22.27466 -51.30306 16215 ft 382 kts 91°
2026-04-17 21:03 -22.27473 -51.27426 16954 ft 386 kts 91°
2026-04-17 21:03 -22.27480 -51.24507 17683 ft 392 kts 91°
2026-04-17 21:03 -22.27488 -51.21545 18361 ft 397 kts 91°
2026-04-17 21:04 -22.27495 -51.18545 18955 ft 402 kts 91°
2026-04-17 21:04 -22.27503 -51.15507 19547 ft 408 kts 91°
2026-04-17 21:04 -22.27510 -51.12468 20131 ft 413 kts 91°
2026-04-17 21:04 -22.27517 -51.09349 20729 ft 418 kts 91°
2026-04-17 21:05 -22.27523 -51.06189 21317 ft 423 kts 91°
2026-04-17 21:05 -22.27528 -51.02993 21909 ft 428 kts 91°
2026-04-17 21:05 -22.27533 -50.99764 22473 ft 433 kts 91°
2026-04-17 21:05 -22.27537 -50.96495 23021 ft 438 kts 91°
2026-04-17 21:06 -22.27541 -50.93192 23545 ft 443 kts 91°
2026-04-17 21:06 -22.27544 -50.89854 24008 ft 446 kts 91°
2026-04-17 21:06 -22.27546 -50.86533 24470 ft 450 kts 91°
2026-04-17 21:06 -22.27548 -50.83139 24931 ft 455 kts 91°
2026-04-17 21:07 -22.27549 -50.79712 25400 ft 458 kts 91°
2026-04-17 21:07 -22.27549 -50.76268 25989 ft 458 kts 91°
2026-04-17 21:07 -22.27548 -50.72829 26677 ft 457 kts 91°
2026-04-17 21:07 -22.27547 -50.69407 27340 ft 456 kts 90°
2026-04-17 21:08 -22.27545 -50.65979 27958 ft 457 kts 90°
2026-04-17 21:08 -22.27543 -50.62546 28581 ft 458 kts 90°
2026-04-17 21:08 -22.27539 -50.59153 29250 ft 457 kts 90°
2026-04-17 21:08 -22.27536 -50.55724 29939 ft 457 kts 90°
2026-04-17 21:09 -22.27531 -50.52304 30530 ft 456 kts 90°
2026-04-17 21:09 -22.27526 -50.48870 30852 ft 459 kts 90°
2026-04-17 21:09 -22.27520 -50.45388 30863 ft 470 kts 90°
2026-04-17 21:09 -22.27563 -50.41813 30870 ft 480 kts 96°
2026-04-17 21:10 -22.28949 -50.34653 30871 ft 496 kts 107°
2026-04-17 21:10 -22.30753 -50.27398 30872 ft 511 kts 107°
2026-04-17 21:11 -22.32550 -50.19926 30888 ft 515 kts 106°
2026-04-17 21:11 -22.34269 -50.12417 30900 ft 515 kts 105°
2026-04-17 21:12 -22.35961 -50.04895 30910 ft 515 kts 105°
2026-04-17 21:12 -22.37642 -49.97425 30918 ft 514 kts 105°
2026-04-17 21:13 -22.39329 -49.89936 30912 ft 513 kts 105°
2026-04-17 21:13 -22.41010 -49.82460 30903 ft 511 kts 105°
2026-04-17 21:14 -22.42685 -49.75000 30892 ft 511 kts 105°
2026-04-17 21:14 -22.44344 -49.67590 30878 ft 510 kts 105°
2026-04-17 21:15 -22.46008 -49.60135 30877 ft 510 kts 105°
2026-04-17 21:15 -22.47671 -49.52674 30872 ft 511 kts 105°
2026-04-17 21:16 -22.49325 -49.45202 30876 ft 511 kts 103°
2026-04-17 21:16 -22.49706 -49.41378 30868 ft 514 kts 89°
2026-04-17 21:16 -22.49346 -49.37592 30882 ft 513 kts 77°
2026-04-17 21:17 -22.48323 -49.33918 30877 ft 510 kts 64°
2026-04-17 21:17 -22.46693 -49.30521 30901 ft 507 kts 58°
2026-04-17 21:17 -22.43215 -49.23878 30891 ft 508 kts 58°
2026-04-17 21:18 -22.39904 -49.17125 30896 ft 510 kts 63°
2026-04-17 21:18 -22.37708 -49.09882 30925 ft 512 kts 74°
2026-04-17 21:19 -22.35993 -49.02409 30907 ft 512 kts 75°
2026-04-17 21:19 -22.34244 -48.94955 30913 ft 512 kts 74°
2026-04-17 21:20 -22.32436 -48.87514 30896 ft 512 kts 73°
2026-04-17 21:20 -22.30614 -48.80082 30894 ft 512 kts 73°
2026-04-17 21:21 -22.28808 -48.72706 30880 ft 511 kts 73°
2026-04-17 21:21 -22.26997 -48.65278 30880 ft 512 kts 76°
2026-04-17 21:22 -22.26484 -48.61480 30876 ft 513 kts 87°
2026-04-17 21:22 -22.26547 -48.57640 30887 ft 512 kts 96°
2026-04-17 21:22 -22.27124 -48.53859 30878 ft 510 kts 107°
2026-04-17 21:22 -22.28199 -48.50217 30895 ft 508 kts 111°
2026-04-17 21:23 -22.30551 -48.43069 30879 ft 509 kts 112°
2026-04-17 21:23 -22.32896 -48.35855 30890 ft 509 kts 111°
2026-04-17 21:24 -22.35175 -48.28615 30878 ft 510 kts 111°
2026-04-17 21:24 -22.37433 -48.21353 30883 ft 510 kts 111°
2026-04-17 21:25 -22.39675 -48.14141 30892 ft 510 kts 111°
2026-04-17 21:25 -22.41932 -48.06878 30888 ft 510 kts 111°
2026-04-17 21:26 -22.44186 -47.99615 30884 ft 510 kts 111°
2026-04-17 21:26 -22.46432 -47.92364 30877 ft 505 kts 111°
2026-04-17 21:27 -22.47730 -47.88877 30860 ft 494 kts 123°
2026-04-17 21:27 -22.49687 -47.85865 30904 ft 488 kts 133°
2026-04-17 21:27 -22.54015 -47.80247 30624 ft 493 kts 135°
2026-04-17 21:28 -22.56225 -47.77412 30086 ft 491 kts 134°
2026-04-17 21:28 -22.58399 -47.74583 29447 ft 486 kts 134°
2026-04-17 21:28 -22.60528 -47.71775 28797 ft 481 kts 133°
2026-04-17 21:28 -22.62630 -47.68979 28188 ft 476 kts 133°
2026-04-17 21:29 -22.64700 -47.66211 27569 ft 471 kts 133°
2026-04-17 21:29 -22.66751 -47.63468 26958 ft 466 kts 133°
2026-04-17 21:29 -22.68756 -47.60787 26364 ft 462 kts 133°
2026-04-17 21:29 -22.70773 -47.58090 25768 ft 459 kts 133°
2026-04-17 21:30 -22.72772 -47.55418 25170 ft 455 kts 133°
2026-04-17 21:30 -22.74750 -47.52774 24554 ft 452 kts 132°
2026-04-17 21:30 -22.76725 -47.50133 23947 ft 450 kts 132°
2026-04-17 21:30 -22.78682 -47.47513 23401 ft 444 kts 132°
2026-04-17 21:31 -22.80608 -47.44931 22802 ft 437 kts 132°
2026-04-17 21:31 -22.82500 -47.42393 22280 ft 429 kts 132°
2026-04-17 21:31 -22.84354 -47.39905 21783 ft 421 kts 132°
2026-04-17 21:31 -22.86177 -47.37458 21299 ft 413 kts 132°
2026-04-17 21:32 -22.87942 -47.35088 20839 ft 406 kts 131°
2026-04-17 21:32 -22.89134 -47.33488 20523 ft 402 kts 131°
2026-04-17 21:32 -22.89998 -47.32328 20297 ft 399 kts 131°
2026-04-17 21:32 -22.91728 -47.30004 19846 ft 393 kts 131°
2026-04-17 21:33 -22.93430 -47.27717 19403 ft 388 kts 131°
2026-04-17 21:33 -22.95117 -47.25448 18945 ft 384 kts 131°
2026-04-17 21:33 -22.96784 -47.23206 18495 ft 380 kts 131°
2026-04-17 21:33 -22.98431 -47.20990 18020 ft 376 kts 131°
2026-04-17 21:34 -23.00059 -47.18797 17549 ft 371 kts 131°
2026-04-17 21:34 -23.01691 -47.16777 17093 ft 363 kts 142°
2026-04-17 21:34 -23.06179 -47.14644 16119 ft 351 kts 170°
2026-04-17 21:35 -23.08566 -47.14134 15609 ft 349 kts 171°
2026-04-17 21:35 -23.10953 -47.13650 15083 ft 348 kts 171°
2026-04-17 21:35 -23.13331 -47.13161 14576 ft 348 kts 171°
2026-04-17 21:35 -23.15703 -47.12658 14057 ft 347 kts 170°
2026-04-17 21:36 -23.18064 -47.12146 13503 ft 345 kts 170°
2026-04-17 21:36 -23.20408 -47.11631 12967 ft 342 kts 170°
2026-04-17 21:36 -23.22701 -47.11125 12453 ft 339 kts 170°
2026-04-17 21:36 -23.24998 -47.10618 11953 ft 335 kts 170°
2026-04-17 21:37 -23.27268 -47.10119 11549 ft 330 kts 170°
2026-04-17 21:37 -23.29505 -47.09629 11158 ft 327 kts 170°
2026-04-17 21:37 -23.31729 -47.09143 10763 ft 323 kts 170°
2026-04-17 21:37 -23.33917 -47.08663 10381 ft 318 kts 171°
2026-04-17 21:38 -23.36072 -47.08191 10006 ft 314 kts 171°
2026-04-17 21:38 -23.38151 -47.07735 9833 ft 303 kts 171°
2026-04-17 21:38 -23.40129 -47.07283 9817 ft 288 kts 166°
2026-04-17 21:38 -23.41878 -47.06289 9541 ft 286 kts 140°
2026-04-17 21:39 -23.43079 -47.04563 9159 ft 289 kts 115°
2026-04-17 21:39 -23.43722 -47.02497 8812 ft 288 kts 107°
2026-04-17 21:39 -23.44260 -47.00401 8444 ft 287 kts 106°
2026-04-17 21:39 -23.44782 -46.98307 8091 ft 286 kts 106°
2026-04-17 21:40 -23.45306 -46.96223 7738 ft 285 kts 106°
2026-04-17 21:40 -23.45832 -46.94147 7396 ft 283 kts 106°
2026-04-17 21:40 -23.46359 -46.92091 7059 ft 282 kts 107°
2026-04-17 21:40 -23.46889 -46.90037 6717 ft 281 kts 107°
2026-04-17 21:41 -23.47406 -46.88036 6449 ft 277 kts 107°
2026-04-17 21:41 -23.47924 -46.86037 6159 ft 270 kts 106°
2026-04-17 21:41 -23.48424 -46.84109 5890 ft 259 kts 106°
2026-04-17 21:41 -23.48904 -46.82253 5629 ft 250 kts 106°
2026-04-17 21:42 -23.49367 -46.80465 5417 ft 239 kts 106°
2026-04-17 21:42 -23.49804 -46.78778 5219 ft 224 kts 106°
2026-04-17 21:42 -23.50215 -46.77187 5020 ft 212 kts 106°
2026-04-17 21:42 -23.50606 -46.75677 4895 ft 201 kts 106°
2026-04-17 21:43 -23.50986 -46.74249 4719 ft 192 kts 112°
2026-04-17 21:43 -23.51791 -46.73174 4529 ft 180 kts 149°
2026-04-17 21:43 -23.52838 -46.72458 4429 ft 180 kts 149°
2026-04-17 21:43 -23.53882 -46.71733 4299 ft 175 kts 149°
2026-04-17 21:44 -23.54876 -46.71042 4175 ft 162 kts 149°
2026-04-17 21:44 -23.55798 -46.70402 3970 ft 152 kts 149°
2026-04-17 21:44 -23.56662 -46.69803 3830 ft 146 kts 149°
2026-04-17 21:44 -23.57526 -46.69210 3670 ft 147 kts 150°
2026-04-17 21:45 -23.58388 -46.68620 3507 ft 146 kts 148°
2026-04-17 21:45 -23.59240 -46.68017 3311 ft 145 kts 149°
2026-04-17 21:45 -23.60094 -46.67437 3103 ft 143 kts 148°
2026-04-17 21:45 -23.60907 -46.66868 2900 ft 139 kts 147°
2026-04-17 21:46 -23.61702 -46.66313 2725 ft 133 kts 148°
2026-04-17 21:46 -23.62468 -46.65781 2605 ft 122 kts 148°
2026-04-17 21:46 -23.62993 -46.65421 2609 ft 51 kts 148°
2026-04-17 21:46 -23.63232 -46.65256 2609 ft 30 kts 147°
2026-04-17 21:47 -23.63341 -46.65203 2607 ft 15 kts 182°
2026-04-17 21:47 -23.63408 -46.65238 2602 ft 12 kts 245°
2026-04-17 21:47 -23.63369 -46.65305 2601 ft 11 kts 328°
2026-04-17 21:47 -23.63302 -46.65351 2601 ft 13 kts 328°
2026-04-17 21:48 -23.63216 -46.65410 2601 ft 17 kts 328°
2026-04-17 21:48 -23.63108 -46.65484 2601 ft 19 kts 328°
2026-04-17 21:48 -23.62985 -46.65534 2603 ft 19 kts 335°
2026-04-17 21:48 -23.62884 -46.65603 2602 ft 16 kts 328°
2026-04-17 21:49 -23.62796 -46.65677 2601 ft 16 kts 307°
2026-04-17 21:49 -23.62726 -46.65762 2600 ft 14 kts 329°
2026-04-17 21:49 -23.62636 -46.65787 2601 ft 14 kts
2026-04-17 21:49 -23.62555 -46.65831 2601 ft 13 kts 328°
2026-04-17 21:50 -23.62481 -46.65882 2600 ft 13 kts 327°
2026-04-17 21:50 -23.62408 -46.65933 2600 ft 12 kts 327°
2026-04-17 21:50 -23.62386 -46.65968 2599 ft 3 kts 237°
2026-04-17 21:50 -23.62403 -46.65997 2599 ft 6 kts 237°
2026-04-17 21:51 -23.62418 -46.66022 2599 ft 1 kts 237°
2026-04-17 21:51 -23.62421 -46.66028 2599 ft 0 kts 237°